TimeEST,TemperatureF,Dew PointF,Humidity,Sea Level PressureIn,VisibilityMPH,Wind Direction,Wind SpeedMPH,Gust SpeedMPH,PrecipitationIn,Events,Conditions,WindDirDegrees,DateUTC
12:15 AM,44.6,39.2,81,30.44,7.0,South,6.9,-,N/A,,Clear,190,2012-11-18 05:15:00
12:35 AM,44.6,39.2,81,30.44,7.0,South,8.1,-,N/A,,Clear,190,2012-11-18 05:35:00
12:55 AM,42.8,39.2,87,30.43,7.0,South,8.1,-,N/A,,Clear,190,2012-11-18 05:55:00
1:15 AM,42.8,39.2,87,30.43,6.0,South,6.9,-,N/A,,Clear,190,2012-11-18 06:15:00
1:35 AM,42.8,39.2,87,30.43,5.0,South,8.1,-,N/A,,Clear,190,2012-11-18 06:35:00
1:55 AM,42.8,39.2,87,30.43,5.0,SSW,5.8,-,N/A,,Clear,200,2012-11-18 06:55:00
2:15 AM,42.8,37.4,81,30.43,5.0,SSW,6.9,-,N/A,,Clear,200,2012-11-18 07:15:00
2:55 AM,42.8,37.4,81,30.44,5.0,SSW,4.6,-,N/A,,Clear,200,2012-11-18 07:55:00
3:15 AM,42.8,37.4,81,30.43,4.0,SSW,4.6,-,N/A,,Clear,200,2012-11-18 08:15:00
3:35 AM,42.8,37.4,81,30.43,5.0,SSW,5.8,-,N/A,,Clear,200,2012-11-18 08:35:00
3:55 AM,42.8,37.4,81,30.42,5.0,SSW,5.8,-,N/A,,Clear,200,2012-11-18 08:55:00
4:15 AM,42.8,37.4,81,30.42,5.0,South,5.8,-,N/A,,Clear,190,2012-11-18 09:15:00
4:35 AM,42.8,37.4,81,30.42,5.0,South,3.5,-,N/A,,Clear,190,2012-11-18 09:35:00
4:55 AM,42.8,37.4,81,30.42,6.0,South,4.6,-,N/A,,Clear,190,2012-11-18 09:55:00
5:15 AM,42.8,37.4,81,30.42,5.0,SSW,4.6,-,N/A,,Clear,200,2012-11-18 10:15:00
5:35 AM,42.8,37.4,81,30.42,5.0,South,4.6,-,N/A,,Clear,190,2012-11-18 10:35:00
5:55 AM,42.8,37.4,81,30.42,6.0,South,4.6,-,N/A,,Clear,190,2012-11-18 10:55:00
6:15 AM,42.8,37.4,81,30.41,5.0,South,6.9,-,N/A,,Clear,190,2012-11-18 11:15:00
6:35 AM,42.8,37.4,81,30.41,5.0,South,3.5,-,N/A,,Clear,190,2012-11-18 11:35:00
6:55 AM,42.8,37.4,81,30.41,5.0,South,3.5,-,N/A,,Clear,180,2012-11-18 11:55:00
7:15 AM,37.4,35.6,93,30.41,3.0,Calm,Calm,-,N/A,,Clear,0,2012-11-18 12:15:00
7:35 AM,35.6,32.0,87,30.41,2.5,Calm,Calm,-,N/A,,Clear,0,2012-11-18 12:35:00
7:55 AM,30.2,28.4,93,30.41,0.8,Calm,Calm,-,N/A,,Unknown,0,2012-11-18 12:55:00
8:15 AM,30.2,28.4,93,30.41,0.2,Calm,Calm,-,N/A,,Overcast,0,2012-11-18 13:15:00
8:35 AM,30.2,28.4,93,30.41,0.2,Calm,Calm,-,N/A,,Overcast,0,2012-11-18 13:35:00
8:55 AM,35.6,33.8,93,30.41,0.2,South,3.5,-,N/A,,Overcast,170,2012-11-18 13:55:00
9:15 AM,44.6,42.8,93,30.41,3.0,South,6.9,-,N/A,,Clear,180,2012-11-18 14:15:00
9:35 AM,46.4,41.0,81,30.41,4.0,South,8.1,-,N/A,,Clear,180,2012-11-18 14:35:00
9:55 AM,46.4,41.0,81,30.41,5.0,South,9.2,-,N/A,,Clear,180,2012-11-18 14:55:00
10:15 AM,46.4,41.0,81,30.41,5.0,South,10.4,-,N/A,,Clear,190,2012-11-18 15:15:00
10:35 AM,46.4,41.0,81,30.41,5.0,South,9.2,-,N/A,,Clear,180,2012-11-18 15:35:00
10:55 AM,46.4,42.8,87,30.41,5.0,South,9.2,-,N/A,,Clear,180,2012-11-18 15:55:00
11:15 AM,46.4,42.8,87,30.41,6.0,South,8.1,-,N/A,,Clear,180,2012-11-18 16:15:00
11:35 AM,48.2,42.8,82,30.40,7.0,South,10.4,-,N/A,,Clear,180,2012-11-18 16:35:00
11:55 AM,48.2,42.8,82,30.40,9.0,South,10.4,17.3,N/A,,Clear,180,2012-11-18 16:55:00
12:15 PM,48.2,42.8,82,30.39,9.0,South,11.5,18.4,N/A,,Clear,180,2012-11-18 17:15:00
12:35 PM,48.2,42.8,82,30.38,9.0,South,9.2,-,N/A,,Clear,180,2012-11-18 17:35:00
12:55 PM,48.2,42.8,82,30.38,8.0,SSE,10.4,-,N/A,,Partly Cloudy,150,2012-11-18 17:55:00
1:15 PM,48.2,42.8,82,30.37,5.0,SSE,12.7,-,N/A,,Clear,160,2012-11-18 18:15:00
1:35 PM,46.4,41.0,81,30.37,5.0,SSE,11.5,18.4,N/A,,Clear,160,2012-11-18 18:35:00
1:55 PM,48.2,42.8,82,30.36,5.0,SSE,13.8,-,N/A,,Clear,160,2012-11-18 18:55:00
2:15 PM,48.2,42.8,82,30.36,6.0,SSE,12.7,-,N/A,,Clear,160,2012-11-18 19:15:00
2:35 PM,48.2,41.0,76,30.35,7.0,SSE,13.8,-,N/A,,Clear,160,2012-11-18 19:35:00
2:55 PM,48.2,41.0,76,30.35,6.0,SSE,12.7,18.4,N/A,,Clear,160,2012-11-18 19:55:00
3:15 PM,48.2,39.2,71,30.35,5.0,South,13.8,-,N/A,,Clear,170,2012-11-18 20:15:00
3:35 PM,46.4,41.0,81,30.35,5.0,SSE,12.7,-,N/A,,Clear,160,2012-11-18 20:35:00
3:55 PM,46.4,39.2,76,30.34,5.0,SSE,10.4,18.4,N/A,,Clear,160,2012-11-18 20:55:00
4:15 PM,46.4,41.0,81,30.34,5.0,SSE,13.8,18.4,N/A,,Clear,160,2012-11-18 21:15:00
4:35 PM,46.4,39.2,76,30.34,5.0,SSE,12.7,-,N/A,,Clear,150,2012-11-18 21:35:00
4:55 PM,46.4,39.2,76,30.34,5.0,SSE,12.7,-,N/A,,Clear,150,2012-11-18 21:55:00
5:15 PM,46.4,39.2,76,30.34,5.0,SSE,9.2,-,N/A,,Clear,160,2012-11-18 22:15:00
5:35 PM,44.6,39.2,81,30.34,4.0,SSE,8.1,-,N/A,,Clear,160,2012-11-18 22:35:00
5:55 PM,44.6,39.2,81,30.34,5.0,SSE,8.1,-,N/A,,Clear,160,2012-11-18 22:55:00
6:15 PM,44.6,39.2,81,30.34,5.0,SSE,6.9,-,N/A,,Clear,160,2012-11-18 23:15:00
6:35 PM,44.6,39.2,81,30.34,7.0,South,6.9,-,N/A,,Clear,170,2012-11-18 23:35:00
6:55 PM,44.6,39.2,81,30.34,8.0,South,6.9,-,N/A,,Clear,170,2012-11-18 23:55:00
7:15 PM,44.6,39.2,81,30.33,7.0,South,5.8,-,N/A,,Clear,170,2012-11-19 00:15:00
7:35 PM,44.6,39.2,81,30.33,7.0,South,5.8,-,N/A,,Clear,170,2012-11-19 00:35:00
7:55 PM,44.6,37.4,76,30.32,8.0,South,3.5,-,N/A,,Clear,180,2012-11-19 00:55:00
8:15 PM,42.8,37.4,81,30.32,10.0,South,5.8,-,N/A,,Clear,190,2012-11-19 01:15:00
8:35 PM,44.6,37.4,76,30.32,10.0,South,6.9,-,N/A,,Clear,190,2012-11-19 01:35:00
9:15 PM,44.6,37.4,76,30.32,10.0,South,5.8,-,N/A,,Mostly Cloudy,190,2012-11-19 02:15:00
9:35 PM,44.6,37.4,76,30.31,10.0,South,8.1,-,N/A,,Overcast,190,2012-11-19 02:35:00
9:55 PM,46.4,37.4,71,30.31,10.0,South,8.1,-,N/A,,Overcast,190,2012-11-19 02:55:00
10:15 PM,44.6,37.4,76,30.31,10.0,South,6.9,-,N/A,,Mostly Cloudy,190,2012-11-19 03:15:00
10:35 PM,44.6,37.4,76,30.31,10.0,South,4.6,-,N/A,,Partly Cloudy,180,2012-11-19 03:35:00
10:55 PM,44.6,37.4,76,30.30,10.0,South,5.8,-,N/A,,Mostly Cloudy,170,2012-11-19 03:55:00
11:35 PM,44.6,37.4,76,30.30,10.0,South,4.6,-,N/A,,Overcast,170,2012-11-19 04:35:00
11:55 PM,44.6,37.4,76,30.29,10.0,South,4.6,-,N/A,,Overcast,170,2012-11-19 04:55:00